Regional Weather Roundup
Issued by NWS Newport/Morehead, NC

Current Version | Previous Version | Graphics & Text | Print | Product List | Glossary On
Versions: 1 2 3 4 5 6 7 8 9 10 11 12 13 14 15 16 17 18 19 20 21 22 23 24 25 26 27 28 29 30 31 32 33 34 35 36 37 38 39 40 41 42 43 44 45 46 47 48 49 50
841 ASUS42 KMHX 231425 RWRMHX WEATHER ROUNDUP FOR EASTERN NORTH CAROLINA NATIONAL WEATHER SERVICE NEWPORT/MOREHEAD CITY NC 900 AM EST TUE JAN 23 2018 NOTE: "FAIR" INDICATES FEW OR NO CLOUDS BELOW 12,000 FEET WITH NO SIGNIFICANT WEATHER AND/OR OBSTRUCTIONS TO VISIBILITY NCZ015>017-031-032-045>047-102-103-231500- NORTH COAST CITY SKY/WX TMP DP RH WIND PRES REMARKS EDENTON CLOUDY 64 61 91 S13G21 29.82F ELIZABETH CITY LGT RAIN 65 65 100 S16 29.82F KITTY HAWK PTSUNNY N/A N/A N/A S8G18 29.85F MANTEO PTSUNNY 57 56 96 S20G28 29.87F $$ NCZ045>047-081-094-103-104-231500- CENTRAL COAST CITY SKY/WX TMP DP RH WIND PRES REMARKS FRISCO NOT AVBL $$ NCZ095-097-098-100-101-231500- SOUTHERN COAST CITY SKY/WX TMP DP RH WIND PRES REMARKS BEAUFORT LGT RAIN 61 60 97 S15 29.90S FOG CEDAR ISLAND NOT AVBL JACKSONVILLE CLOUDY 65 65 100 S15G24 29.88R PINEY ISLAND NOT AVBL WILMINGTON CLOUDY 66 63 90 SW16G29 29.90S $$ NCZ011>013-027>030-043-044-078>080-089-090>093-098-231500- COASTAL PLAIN CITY SKY/WX TMP DP RH WIND PRES REMARKS AHOSKIE HVY RAIN 64 64 100 S10G18 29.77F CLINTON CLOUDY 66 65 98 S6 29.84S ELIZABETHTOWN NOT AVBL GOLDSBORO PTSUNNY 66 63 90 SW15G25 29.80R GREENVILLE PTSUNNY 66 64 94 SW18G25 29.84R HAVELOCK RAIN 67 65 93 SW26G45 29.90R FOG KENANSVILLE CLOUDY 66 64 94 S7 29.85S KINSTON DRIZZLE 66 64 94 SW17 29.83S NEW BERN LGT RAIN 65 65 100 SW24G35 29.88R FOG RICHLANDS CLOUDY 66 64 94 S17G23 29.87S ROCKY MOUNT LGT RAIN 65 64 97 S15G26 29.79R FOG WASHINGTON RAIN 66 64 95 SW15G23 29.82F WHITEVILLE CLOUDY 67 63 86 SW13 29.87S $$ AMZ130-135-150-152-154-156-158-170-250-252-270-ANZ085-086-088-633-658-670-231500- MARINE OBSERVATIONS STATION/POSITION TIME TEMP WIND PRES WAVE SWELL AIR SEA DIR/SP/G HT/PER HT/PER (UTC) (F) (DEG/KT/KT) (MB) (FT/S) (FT/S) CHESAPEAKE LIGHT NOT AVBL 64 E VA BEACH 1350 64 58 180/ 21/ 25 1010.8 6/ 6 2/12 DUCK 1400 62 41 180/ 21/ 29 1009.7 2 E DUCK 1400 42 N/A 4/ 7 OREGON INLET 1400 54 44 170/ 14/ 18 1011.7 13E OREGON INLT 1348 41 N/A 6/ 7 5/ 7 HATTERAS CG 1400 67 54 190/ 8/ 15 1012.3 DIAMOND BUOY 1410 73 70 190/ 27/ 37 1013.3 CAPE LOOKOUT 1400 190/ 17/ 19 1013.0 BEAUFORT LAB 1400 56 49 190/ 13/ 14 1012.4 30 SE NEW RVR IN 1308 66 58 190/ 16/ 21 1012.5 30 SE NEW RVR IN 1400 58 N/A 9/ 7 27 SE WRIGHTSVLE 1308 66 60 190/ 17/ 25 1013.0 5 SE WRIGHTSVLE 1408 55 47 230/ 12/ 17 1012.7 225 S CAPE HAT 1350 71 70 180/ 16/ 17 1018.9 6/ 6 2/ 9 41 SE CHARLESTON 1410 68 69 230/ 23/ 27 1014.0 $$

USA.gov is the U.S. government's official web portal to all federal, state and local government web resources and services.